Regional Weather Roundup
Issued by NWS

Home | Current Version | Previous Version | Text Only | Print | Product List | Glossary On
Versions: 1 2 3 4 5 6 7 8 9 10 11 12 13 14 15 16 17 18 19 20 21 22 23 24 25 26 27 28 29 30 31 32 33 34 35 36 37 38 39 40 41 42 43 44 45 46 47 48 49 50
000
ASUS43 KIND 260309
RWRIN

WEATHER ROUNDUP FOR INDIANA
NATIONAL WEATHER SERVICE INDIANAPOLIS IN
1000 PM EST THU DEC 25 2014

NOTE: "FAIR" INDICATES FEW OR NO CLOUDS BELOW 12,000 FEET WITH NO
SIGNIFICANT WEATHER AND/OR OBSTRUCTIONS TO VISIBILITY.

* - STATION DOES NOT REPORT WEATHER SUCH AS PRECIPITATION OR FOG.

+ - STATION NOT QUALITY CONTROLLED BY THE NATIONAL WEATHER SERVICE.
    USE DATA WITH CAUTION...ESPECIALLY DEWPOINT AND RELATIVE
    HUMIDITY OBSERVATIONS.

INZ001>003-010>013-019-020-260400-
NORTHWEST INDIANA

CITY           SKY/WX    TMP DP  RH WIND       PRES   REMARKS
GARY /AIRPORT/ PTCLDY    40  31  69 S10G16    30.02F
KNOX *+        PTCLDY    36  29  76 S12       30.05S
LA PORTE +     PTCLDY    37  33  86 S7        30.05S
MICHIGAN CITY+ MOCLDY    36  30  80 S9        30.04S
MONTICELLO +   CLEAR     35  32  88 S6        30.06F WCI  30
RENSSELAER +   PTCLDY    36  34  93 SE10      30.05F
VALPARAISO     PTCLDY    35  31  85 S9        30.05S WCI  28

$$

LMZ046-743>745-260400-
SOUTHERN LAKE MICHIGAN

STATION/POSITION TIME  TEMP WIND        PRES
                       AIR  DIR/SP/G
                 (UTC) (F)  (DEG/KT/KT) (MB)
MICHIGAN CITY    0300   38  140/ 12/ 16   N/A

$$

INZ004-005-014>016-021>024-260400-
NORTH CENTRAL INDIANA

CITY           SKY/WX    TMP DP  RH WIND       PRES   REMARKS
GOSHEN         MOCLDY    36  31  82 S10       30.08S
LOGANSPORT +   CLEAR     34  30  86 S10       30.08F WCI  26
PERU/GRISSOM   MOCLDY    34  34 100 S9        30.08S WCI  27
ROCHESTER +    MOCLDY    37  34  87 S8        30.08S
SOUTH BEND     CLOUDY    37  31  78 S9        30.07S
WARSAW +       MOCLDY    34  32  93 S5        30.08S WCI  30

$$

INZ006>009-017-018-025>027-260400-
NORTHEAST INDIANA

CITY           SKY/WX    TMP DP  RH WIND       PRES   REMARKS
ANGOLA *+      CLEAR     32  28  86 S6        30.07F WCI  26
AUBURN +       CLEAR     34  30  86 CALM      30.10F
FORT WAYNE     MOCLDY    33  30  88 S9        30.11F WCI  25
HUNTINGTON +   PTCLDY    33  31  93 S7        30.10S WCI  27

$$

INZ028-029-035-036-043>045-051>053-260400-
WEST CENTRAL INDIANA

CITY           SKY/WX    TMP DP  RH WIND       PRES   REMARKS
CRAWFORDSVL +  PTCLDY    32  28  86 SE9       30.08  WCI  24
GREENCASTLE +  CLEAR     32  28  86 SE6       30.10S WCI  26
LAFAYETTE      PTCLDY    36  31  82 S7        30.08S
TERRE HAUTE    CLEAR     35  31  85 SE7       30.09F WCI  29

$$

INZ030>032-037>040-046>048-054>057-064-065-260400-
CENTRAL INDIANA

CITY           SKY/WX    TMP DP  RH WIND       PRES   REMARKS
CP ATTERBURY + CLEAR     36  32  87 MISG      30.14F
COLUMBUS       CLEAR     36  32  87 S9        30.14F
FRANKFORT +    CLEAR     35  33  91 SE7       30.09F WCI  29
INDIANAPOLIS   CLEAR     34  30  85 SE9       30.11S WCI  27
-EAGLE CREEK   CLEAR     36  31  82 S8        30.11S
KOKOMO *+      CLEAR     36  30  80 S14       30.09S
MARION +       PTCLDY    33  30  90 S9        30.12R WCI  25
MT COMFORT *+  CLEAR     36  28  75 S9        30.12S
SHELBYVILLE    CLEAR     37  31  78 S12       30.13F
ZIONSVILLE +   CLEAR     34  29  83 SE6       30.11S WCI  29

$$

INZ033-034-041-042-049-050-058-059-260400-
EAST CENTRAL INDIANA

CITY           SKY/WX    TMP DP  RH WIND       PRES   REMARKS
MUNCIE         CLEAR     36  31  82 S12       30.12S

$$

INZ060-061-067>069-081>083-085>088-260400-
SOUTHWEST INDIANA

CITY           SKY/WX    TMP DP  RH WIND       PRES   REMARKS
EVANSVILLE     CLEAR     41  33  73 SE7       30.13F
HUNTINGBURG *+ CLEAR     39  30  70 S6        30.14F
WASHINGTON +   CLEAR     38  32  76 S9        30.12R

$$

INZ062-063-066-070>080-084-089>092-260400-
SOUTH CENTRAL AND SOUTHEAST INDIANA

CITY           SKY/WX    TMP DP  RH WIND       PRES   REMARKS
BLOOMINGTON    CLEAR     36  32  85 S9        30.10F

$$




USA.gov is the U.S. government's official web portal to all federal, state and local government web resources and services.